Location: Batang Balui
(2.7000°N, 113.7833°E)
Time: 23:41:46
(UTC+00:00)

ISS - Visible Passes

Search period start: 06 December 2022 00:00
Search period end: 16 December 2022 00:00
Orbit: 414 x 420 km, 51.6° (Epoch: 06 December)

Date Brightness Start Highest point End Pass type
(mag) Time Alt. Az. Time Alt. Az. Time Alt. Az.
09 Dec -2.4 10:52:40 10° N 10:55:11 20° NE 10:57:32 11° E visible
09 Dec -0.3 12:30:12 10° W 12:30:46 11° WSW 12:30:46 11° WSW visible
10 Dec -1.6 11:40:40 10° WNW 11:43:33 28° SW 11:46:28 10° S visible
11 Dec -3.5 10:52:05 10° NW 10:55:23 72° SW 10:58:41 10° SSE visible
12 Dec -0.4 21:42:04 10° SSE 21:44:19 17° SE 21:46:33 10° E visible
13 Dec -0.3 10:53:43 10° W 10:55:30 14° SW 10:57:17 10° SSW visible
14 Dec -3.8 21:41:01 10° SW 21:44:23 90° SE 21:47:43 10° NE visible
15 Dec -2.0 20:53:02 10° SSW 20:56:07 34° SE 20:59:12 10° ENE visible
